User: anonymous   Login
Location: Albany
(35.0000°S, 118.0000°E)
Time: 03:08:44
(UTC-04:00)
Language:

ERS-1 Rocket - Orbit

View from above orbital plane
View from above orbital plane
View from above satellite
View from above satellite

Ground track
Ground track

The orbit data is extracted from the following two-line orbital elements,

1 21610U 91050F   18142.77032378 +.00000011 +00000-0 +17481-4 0  9995
2 21610 098.5568 205.5201 0003467 029.5476 078.2903 14.40837643408732
Epoch (UTC): 22 May 2018 18:29:15
Eccentricity: 0.0003467
inclination: 98.5568°
perigee height: 753 km
apogee height: 758 km
right ascension of ascending node: 205.5201°
argument of perigee: 29.5476°
revolutions per day: 14.40837643
mean anomaly at epoch: 78.2903°
orbit number at epoch: 40873

The dashed part of the orbit path shows where the satellite is in the earth's shadow,  

DLR